(474239) = 2001 RH30 = 2004 GK49

Discovered at Socorro on 2001-09-07 by LINEAR.

Orbit

Orbit type: Main Belt

Note: WebGL enabled browser required.

epoch2023-09-13.0
epoch JD2460200.5
perihelion date2023-08-27.70798
perihelion JD2460184.20798
argument of perihelion (°)312.43318
ascending node (°)3.90610
inclination (°)4.68075
eccentricity0.2112898
perihelion distance (AU)1.8841865
Tisserand w.r.t. Jupiter3.5
ΔV w.r.t. Earth (km/sec)8.7
semimajor axis (AU)2.3889465
mean anomaly (°)4.34880
mean daily motion (°/day)0.26692800
aphelion distance (AU)2.894
period (years)3.69
P-vector [x]0.72327292
P-vector [y]-0.60720654
P-vector [z]-0.32890196
Q-vector [x]0.69053992
Q-vector [y]0.63978217
Q-vector [z]0.33739204
absolute magnitude18.02
phase slope0.15
uncertainty0
referenceMPO 780214
observations used162
oppositions11
arc length (days)8071
first opposition used2001
last opposition used2023
residual rms (arc-secs)0.67
perturbers coarse indicatorM-v
perturbers precise indicator003Ek
first observation date used2001-09-07.0
last observation date used2023-10-13.0
computer nameMPCLINUX
JD of orbit computation2457700.128085
perihelion JD uncertainty (days)1.5949E-04
argument of perihelion uncertainty (°)9.6062E-05
ascending node uncertainty (°)8.5021E-05
inclination uncertainty (°)1.6176E-05
eccentricity uncertainty 8.8150E-08
perihelion distance uncertainty (AU)2.0525E-07
Minimum Orbit Intersection Distances (in AU)
for orbit epoch: 2460200.5, reference: E2023-TO1
Mercury1.45621
Venus1.15603
Earth0.87417
Mars0.49538
Jupiter2.40683
Saturn6.26079
Uranus15.5984
Neptune27.3669

Observations

171 total observations over interval: 2001 09 07.21475 – 2023 10 13.281406
These data are available for download (format description).

Date (UT) J2000 RA J2000 Dec Magn Location Ref
2001 09 07.21475 23 19 14.68 -07 42 55.0 19.1   704 – Lincoln Laboratory ETS, New Mexico MPS 34994
2001 09 07.24244 23 19 13.09 -07 42 58.4 19.3   704 – Lincoln Laboratory ETS, New Mexico MPS 34994
2001 09 07.25632 23 19 12.24 -07 42 58.8 19.3   704 – Lincoln Laboratory ETS, New Mexico MPS 34994
2001 09 12.33173 23 14 22.70 -07 51 10.3 19.8   704 – Lincoln Laboratory ETS, New Mexico MPS 34994
2001 09 12.36001 23 14 21.04 -07 51 12.5 19.5   704 – Lincoln Laboratory ETS, New Mexico MPS 34994
2001 09 12.37412 23 14 20.20 -07 51 14.6 20.1   704 – Lincoln Laboratory ETS, New Mexico MPS 34994
2001 09 12.38824 23 14 19.36 -07 51 15.4 20.0   704 – Lincoln Laboratory ETS, New Mexico MPS 34994
2001 09 19.19072 23 08 08.70 -07 59 05.7 19.3   704 – Lincoln Laboratory ETS, New Mexico MPS 36240
2001 09 19.20493 23 08 07.96 -07 59 06.9 19.7   704 – Lincoln Laboratory ETS, New Mexico MPS 36240
2001 09 19.21913 23 08 07.18 -07 59 08.4 19.9   704 – Lincoln Laboratory ETS, New Mexico MPS 36240
2001 09 19.23331 23 08 06.37 -07 59 08.6 19.7   704 – Lincoln Laboratory ETS, New Mexico MPS 36240
2001 09 19.24750 23 08 05.58 -07 59 09.5 20.0   704 – Lincoln Laboratory ETS, New Mexico MPS 36240
2001 09 21.24767 23 06 24.19 -08 00 31.0 19.2   704 – Lincoln Laboratory ETS, New Mexico MPS 36240
2001 09 21.26186 23 06 23.45 -08 00 31.3 19.9   704 – Lincoln Laboratory ETS, New Mexico MPS 36240
2001 09 21.27600 23 06 22.71 -08 00 32.0 19.5   704 – Lincoln Laboratory ETS, New Mexico MPS 36240
2001 09 21.29015 23 06 21.95 -08 00 32.4 20.0   704 – Lincoln Laboratory ETS, New Mexico MPS 36240
2001 09 21.30430 23 06 21.16 -08 00 32.7 19.8   704 – Lincoln Laboratory ETS, New Mexico MPS 36240
2004 04 12.33373 13 30 08.30 -12 20 43.2 21.6 V 691 – Steward Observatory, Kitt Peak-Spacewatch MPS 105240
2004 04 12.36217 13 30 06.46 -12 20 37.4 21.5 V 691 – Steward Observatory, Kitt Peak-Spacewatch MPS 105240
2004 04 12.39092 13 30 04.67 -12 20 30.3 21.9 V 691 – Steward Observatory, Kitt Peak-Spacewatch MPS 105240
2004 04 19.23388 13 22 58.57 -11 53 32.6 21.6 V 691 – Steward Observatory, Kitt Peak-Spacewatch MPS 105240
2004 04 19.26118 13 22 56.81 -11 53 26.0 21.5 V 691 – Steward Observatory, Kitt Peak-Spacewatch MPS 105240
2004 04 19.28794 13 22 55.09 -11 53 19.4 21.2 V 691 – Steward Observatory, Kitt Peak-Spacewatch MPS 105240
2005 10 22.23623 03 01 25.03 +22 10 28.3 21.1 V 691 – Steward Observatory, Kitt Peak-Spacewatch MPS 145873
2005 10 22.25349 03 01 23.92 +22 10 27.4 21.1 V 691 – Steward Observatory, Kitt Peak-Spacewatch MPS 145873
2005 10 22.27084 03 01 22.79 +22 10 26.1 20.9 V 691 – Steward Observatory, Kitt Peak-Spacewatch MPS 145873
2005 10 31.23645 02 51 38.39 +21 52 45.9 20.1 V 691 – Steward Observatory, Kitt Peak-Spacewatch MPS 147274
2005 10 31.25380 02 51 37.07 +21 52 44.2 20.6 V 691 – Steward Observatory, Kitt Peak-Spacewatch MPS 147274
2005 10 31.27113 02 51 35.87 +21 52 41.2 20.5 V 691 – Steward Observatory, Kitt Peak-Spacewatch MPS 147274
2012 08 14.57583 22 02 58.30 -18 53 34.0 19.2 V E12 – Siding Spring Survey MPS 429324
2012 08 14.59020 22 02 57.40 -18 53 35.2 19.8 V E12 – Siding Spring Survey MPS 429324
2012 08 14.60442 22 02 56.58 -18 53 36.4 19.6 V E12 – Siding Spring Survey MPS 429324
2015 04 10.24985 12 50 11.48 -07 11 54.9 21.6 V G96 – Mt. Lemmon Survey MPS 598468
2015 04 10.25396 12 50 11.19 -07 11 53.3 20.7 V G96 – Mt. Lemmon Survey MPS 598468
2015 04 10.25810 12 50 10.98 -07 11 52.8 21.4 V G96 – Mt. Lemmon Survey MPS 598468
2015 04 10.26221 12 50 10.70 -07 11 51.2 21.0 V G96 – Mt. Lemmon Survey MPS 598468
2015 04 11.25468 12 49 10.43 -07 07 28.2 21.7 V G96 – Mt. Lemmon Survey MPS 598468
2015 04 11.26077 12 49 10.07 -07 07 26.6 20.9 V G96 – Mt. Lemmon Survey MPS 598468
2015 04 11.26686 12 49 09.72 -07 07 24.4 21.3 V G96 – Mt. Lemmon Survey MPS 598468
2015 04 11.27295 12 49 09.33 -07 07 23.2 21.4 V G96 – Mt. Lemmon Survey MPS 598468
2015 04 13.38794 12 47 01.817 -06 58 01.26 21.6 w F51 – Pan-STARRS 1, Haleakala MPS 598468
2015 04 13.39877 12 47 01.151 -06 57 58.53 21.2 w F51 – Pan-STARRS 1, Haleakala MPS 598468
2015 04 13.40960 12 47 00.489 -06 57 55.52 21.5 w F51 – Pan-STARRS 1, Haleakala MPS 598468
2015 04 18.09446 12 42 25.38 -06 37 25.5 21.7 V W84 – Cerro Tololo-DECam MPS 790908
2015 04 18.09764 12 42 25.18 -06 37 24.7   W84 – Cerro Tololo-DECam MPS 790908
2015 04 18.10083 12 42 25.00 -06 37 23.9   W84 – Cerro Tololo-DECam MPS 790908
2015 04 18.10401 12 42 24.81 -06 37 23.1   W84 – Cerro Tololo-DECam MPS 790908
2015 04 18.10718 12 42 24.62 -06 37 22.2   W84 – Cerro Tololo-DECam MPS 790908
2015 04 21.08603 12 39 37.40 -06 24 50.3   W84 – Cerro Tololo-DECam MPS 790908
2015 04 21.08921 12 39 37.21 -06 24 49.5 21.7 V W84 – Cerro Tololo-DECam MPS 790908
2015 04 21.09237 12 39 37.03 -06 24 48.7   W84 – Cerro Tololo-DECam MPS 790908
2015 04 21.09555 12 39 36.85 -06 24 48.0   W84 – Cerro Tololo-DECam MPS 790908
2015 04 21.09874 12 39 36.67 -06 24 47.2   W84 – Cerro Tololo-DECam MPS 790908
2016 08 16.53221 02 18 56.874 +14 24 53.64 21.2 i F51 – Pan-STARRS 1, Haleakala MPS 725059
2016 08 16.55818 02 18 57.983 +14 25 04.32 21.1 i F51 – Pan-STARRS 1, Haleakala MPS 725059
2016 08 16.57115 02 18 58.544 +14 25 09.69 21.2 i F51 – Pan-STARRS 1, Haleakala MPS 725059
2016 09 02.38668 02 27 12.62 +15 56 45.1 21.5 V G96 – Mt. Lemmon Survey MPS 725537
2016 09 02.39239 02 27 12.66 +15 56 47.3 21.3 V G96 – Mt. Lemmon Survey MPS 725537
2016 09 02.39814 02 27 12.76 +15 56 48.4 21.2 V G96 – Mt. Lemmon Survey MPS 725537
2016 09 02.40383 02 27 12.81 +15 56 50.4 20.9 V G96 – Mt. Lemmon Survey MPS 725537
2016 09 22.41492 02 24 27.14 +16 53 20.6 20.8 V G96 – Mt. Lemmon Survey MPS 730002
2016 09 22.42343 02 24 26.85 +16 53 20.5 21.3 V G96 – Mt. Lemmon Survey MPS 730002
2016 09 22.43809 02 24 26.38 +16 53 21.9 20.7 V G96 – Mt. Lemmon Survey MPS 730002
2016 09 22.44239 02 24 26.18 +16 53 22.2 20.8 V G96 – Mt. Lemmon Survey MPS 730002
2016 10 05.24758 02 15 28.50 +16 55 02.1 20.9 G G45 – Space Surveillance Telescope, Atom Site MPS 1610855
2016 10 05.28952 02 15 26.13 +16 55 00.6 20.8 G G45 – Space Surveillance Telescope, Atom Site MPS 1610855
2016 10 05.40193 02 15 19.96 +16 54 53.2 20.7 G G45 – Space Surveillance Telescope, Atom Site MPS 1610855
2016 10 05.43185 02 15 18.24 +16 54 51.2 20.9 G G45 – Space Surveillance Telescope, Atom Site MPS 1610855
2016 10 05.43528 02 15 18.03 +16 54 50.6 20.9 G G45 – Space Surveillance Telescope, Atom Site MPS 1610855
2016 10 06.41233 02 14 25.49 +16 53 49.0 20.7 G G45 – Space Surveillance Telescope, Atom Site MPS 1610855
2016 10 06.45468 02 14 23.00 +16 53 47.0 20.5 G G45 – Space Surveillance Telescope, Atom Site MPS 1610855
2016 10 06.45894 02 14 22.80 +16 53 45.9 20.3 G G45 – Space Surveillance Telescope, Atom Site MPS 1610855
2016 10 06.48878 02 14 21.12 +16 53 43.9 20.2 G G45 – Space Surveillance Telescope, Atom Site MPS 1610855
2016 10 10.33587 02 10 41.89 +16 48 10.2 20.7 V G96 – Mt. Lemmon Survey MPS 734273
2016 10 10.34121 02 10 41.57 +16 48 09.0 21.0 V G96 – Mt. Lemmon Survey MPS 734273
2016 10 10.34559 02 10 41.29 +16 48 08.5 20.4 V G96 – Mt. Lemmon Survey MPS 734273
2016 10 10.35010 02 10 41.03 +16 48 07.3 20.0 V G96 – Mt. Lemmon Survey MPS 734273
2016 10 10.35618 02 10 40.65 +16 48 07.2 20.4 V G96 – Mt. Lemmon Survey MPS 734273
2016 10 10.36052 02 10 40.35 +16 48 07.5 20.7 V G96 – Mt. Lemmon Survey MPS 734273
2016 10 10.36596 02 10 40.03 +16 48 06.9 20.6 V G96 – Mt. Lemmon Survey MPS 734273
2016 10 10.37036 02 10 39.72 +16 48 06.0 20.4 V G96 – Mt. Lemmon Survey MPS 734273
2016 10 20.38605 02 00 09.49 +16 23 58.2 20.1 V G96 – Mt. Lemmon Survey MPS 736192
2016 10 20.39200 02 00 09.08 +16 23 57.6 20.2 V G96 – Mt. Lemmon Survey MPS 736192
2016 10 20.39931 02 00 08.59 +16 23 56.5 20.3 V G96 – Mt. Lemmon Survey MPS 736192
2016 10 20.40375 02 00 08.23 +16 23 56.5   G96 – Mt. Lemmon Survey MPS 736192
2016 10 25.45956 01 54 40.322 +16 07 46.22 20.2 w F51 – Pan-STARRS 1, Haleakala MPS 737430
2016 10 25.47219 01 54 39.471 +16 07 43.66 20.2 w F51 – Pan-STARRS 1, Haleakala MPS 737430
2016 10 25.48476 01 54 38.628 +16 07 41.01 20.3 w F51 – Pan-STARRS 1, Haleakala MPS 737430
2016 10 25.49727 01 54 37.789 +16 07 38.41 20.3 w F51 – Pan-STARRS 1, Haleakala MPS 737430
